This is the latest recevied weather packets stored in our database for station/object K8WEH. If no packets are shown the sender has not sent any weather packets the latest 10 day(s).
| Time | Temp. | Humidity | Pressure | Rain* | Wind** | Luminosity | Snow |
|---|---|---|---|---|---|---|---|
| 1777674619 | 11.11° C | 60% | 1016.7 hPa | 0 mm | - | - | - |
| 1777674321 | 11.11° C | 61% | 1016.6 hPa | 0 mm | - | - | - |
| 1777674020 | 11.11° C | 60% | 1016.3 hPa | 0 mm | - | - | - |
| 1777673719 | 11.67° C | 59% | 1016.1 hPa | 0 mm | - | - | - |
| 1777673419 | 11.67° C | 60% | 1016.1 hPa | 0 mm | - | - | - |
| 1777673118 | 11.67° C | 59% | 1016.1 hPa | 0 mm | - | - | - |
| 1777672818 | 11.67° C | 61% | 1016.1 hPa | 0 mm | - | - | - |
| 1777672518 | 12.22° C | 62% | 1015.9 hPa | 0 mm | - | - | - |
| 1777672218 | 12.22° C | 59% | 1015.8 hPa | 0 mm | - | - | - |
| 1777671916 | 12.22° C | 58% | 1015.9 hPa | 0 mm | - | - | - |
| 1777671617 | 12.22° C | 61% | 1016.1 hPa | 0 mm | - | - | - |
| 1777671316 | 12.22° C | 60% | 1015.8 hPa | 0 mm | - | - | - |
| 1777671014 | 12.22° C | 61% | 1015.8 hPa | 0 mm | - | - | - |
| 1777670714 | 12.22° C | 62% | 1015.9 hPa | 0 mm | - | - | - |
| 1777670414 | 11.67° C | 62% | 1015.9 hPa | 0 mm | - | - | - |
| 1777670114 | 12.22° C | 61% | 1015.9 hPa | 0 mm | - | - | - |
| 1777669814 | 12.22° C | 64% | 1015.6 hPa | 0 mm | - | - | - |
| 1777669514 | 11.67° C | 62% | 1015.8 hPa | 0 mm | - | - | - |
| 1777669213 | 11.67° C | 64% | 1015.9 hPa | 0 mm | - | - | - |
| 1777668914 | 11.67° C | 64% | 1015.8 hPa | 0 mm | - | - | - |
| 1777668613 | 11.67° C | 64% | 1015.7 hPa | 0 mm | - | - | - |
| 1777668312 | 11.67° C | 68% | 1015.7 hPa | 0 mm | - | - | - |
| 1777668012 | 11.67° C | 67% | 1015.5 hPa | 0 mm | - | - | - |
| 1777667711 | 11.67° C | 67% | 1015.5 hPa | 0 mm | - | - | - |
| 1777667411 | 11.11° C | 68% | 1015.8 hPa | 0 mm | - | - | - |
* Rain latest hour (hover to see other rain measurements)
** Current wind speed in m/s (hover to see current wind gust speed)